Time,TemperatureF,DewpointF,PressureIn,WindDirection,WindDirectionDegrees,WindSpeedMPH,WindSpeedGustMPH,Humidity,HourlyPrecipIn,Conditions,Clouds,dailyrainin,SoftwareType,DateUTC
2011-05-28 00:04:00,59.2,33.4,29.71,SSW,202,0.0,0.0,38,0.00,,,0.00,open2300-1.11,2011-05-28 06:04:00,
2011-05-28 00:14:00,58.8,33.1,29.71,SW,225,0.0,0.0,38,0.00,,,0.00,open2300-1.11,2011-05-28 06:14:00,
2011-05-28 00:24:00,58.8,33.8,29.71,SW,225,0.0,0.0,39,0.00,,,0.00,open2300-1.11,2011-05-28 06:24:00,
2011-05-28 00:34:00,58.3,33.3,29.72,East,90,0.7,0.7,39,0.00,,,0.00,open2300-1.11,2011-05-28 06:34:00,
2011-05-28 00:44:00,58.1,33.9,29.72,East,90,0.0,0.7,40,0.00,,,0.00,open2300-1.11,2011-05-28 06:44:00,
2011-05-28 00:54:00,57.9,33.7,29.72,East,90,0.0,0.0,40,0.00,,,0.00,open2300-1.11,2011-05-28 06:54:00,
2011-05-28 01:04:00,57.7,33.6,29.72,SSE,157,0.0,4.9,40,0.00,,,0.00,open2300-1.11,2011-05-28 07:04:00,
2011-05-28 01:14:00,57.4,33.8,29.72,East,90,0.0,0.0,41,0.00,,,0.00,open2300-1.11,2011-05-28 07:14:00,
2011-05-28 01:24:00,57.0,33.5,29.72,East,90,0.0,0.0,42,0.00,,,0.00,open2300-1.11,2011-05-28 07:24:00,
2011-05-28 01:35:00,56.7,33.7,29.72,ESE,112,0.0,0.0,42,0.00,,,0.00,open2300-1.11,2011-05-28 07:35:00,
2011-05-28 01:44:00,56.5,34.1,29.73,ESE,112,0.0,1.3,43,0.00,,,0.00,open2300-1.11,2011-05-28 07:44:00,
2011-05-28 01:54:00,56.1,33.8,29.73,East,90,0.0,0.0,43,0.00,,,0.00,open2300-1.11,2011-05-28 07:54:00,
2011-05-28 02:04:00,55.9,33.6,29.72,SE,135,0.0,2.5,43,0.00,,,0.00,open2300-1.11,2011-05-28 08:04:00,
2011-05-28 02:14:00,55.4,33.7,29.72,SE,135,0.0,0.0,44,0.00,,,0.00,open2300-1.11,2011-05-28 08:14:00,
2011-05-28 02:24:00,55.0,33.4,29.73,SE,135,0.0,0.0,44,0.00,,,0.00,open2300-1.11,2011-05-28 08:24:00,
2011-05-28 02:34:00,54.7,33.6,29.72,SSE,157,0.0,0.0,45,0.00,,,0.00,open2300-1.11,2011-05-28 08:34:00,
2011-05-28 02:44:00,54.3,33.3,29.72,ESE,112,0.0,0.0,45,0.00,,,0.00,open2300-1.11,2011-05-28 08:44:00,
2011-05-28 02:54:00,54.1,33.7,29.72,SE,135,0.0,0.0,46,0.00,,,0.00,open2300-1.11,2011-05-28 08:54:00,
2011-05-28 03:04:00,54.0,34.1,29.73,SE,135,0.0,0.0,47,0.00,,,0.00,open2300-1.11,2011-05-28 09:04:00,
2011-05-28 03:14:00,53.8,33.9,29.73,SE,135,0.0,0.0,47,0.00,,,0.00,open2300-1.11,2011-05-28 09:14:00,
2011-05-28 03:24:00,53.2,33.4,29.72,SE,135,0.0,0.0,47,0.00,,,0.00,open2300-1.11,2011-05-28 09:24:00,
2011-05-28 03:34:00,52.9,33.7,29.73,SE,135,0.0,0.0,48,0.00,,,0.00,open2300-1.11,2011-05-28 09:34:00,
2011-05-28 03:44:00,52.5,33.3,29.73,SE,135,0.0,0.0,48,0.00,,,0.00,open2300-1.11,2011-05-28 09:44:00,
2011-05-28 03:54:00,52.3,33.7,29.73,SE,135,0.0,0.0,49,0.00,,,0.00,open2300-1.11,2011-05-28 09:54:00,
2011-05-28 04:04:00,52.0,33.4,29.73,SSE,157,0.0,0.0,49,0.00,,,0.00,open2300-1.11,2011-05-28 10:04:00,
2011-05-28 04:14:00,52.0,34.0,29.73,SSE,157,0.0,0.0,50,0.00,,,0.00,open2300-1.11,2011-05-28 10:14:00,
2011-05-28 04:24:00,51.8,33.8,29.72,SE,135,0.0,0.0,50,0.00,,,0.00,open2300-1.11,2011-05-28 10:24:00,
2011-05-28 04:35:00,51.6,34.1,29.72,SE,135,0.0,0.0,51,0.00,,,0.00,open2300-1.11,2011-05-28 10:35:00,
2011-05-28 04:44:00,51.4,33.9,29.72,SE,135,0.0,0.0,51,0.00,,,0.00,open2300-1.11,2011-05-28 10:44:00,
2011-05-28 04:54:00,51.1,34.0,29.72,SE,135,0.0,0.0,52,0.00,,,0.00,open2300-1.11,2011-05-28 10:54:00,
2011-05-28 05:04:00,51.1,34.0,29.72,SE,135,0.0,0.0,52,0.00,,,0.00,open2300-1.11,2011-05-28 11:04:00,
2011-05-28 05:14:00,50.7,34.2,29.73,ESE,112,0.0,0.0,53,0.00,,,0.00,open2300-1.11,2011-05-28 11:14:00,
2011-05-28 05:24:00,50.7,34.2,29.73,South,180,0.0,0.0,53,0.00,,,0.00,open2300-1.11,2011-05-28 11:24:00,
2011-05-28 05:34:00,50.5,34.5,29.73,South,180,0.0,0.0,54,0.00,,,0.00,open2300-1.11,2011-05-28 11:34:00,
2011-05-28 05:44:00,50.7,34.6,29.72,ENE,67,0.0,0.0,54,0.00,,,0.00,open2300-1.11,2011-05-28 11:44:00,
2011-05-28 05:54:00,51.1,35.0,29.73,East,90,3.6,4.9,54,0.00,,,0.00,open2300-1.11,2011-05-28 11:54:00,
2011-05-28 06:05:00,51.6,35.0,29.73,SE,135,0.0,3.6,53,0.00,,,0.00,open2300-1.11,2011-05-28 12:05:00,
2011-05-28 06:14:00,51.6,35.0,29.73,East,90,5.4,5.4,53,0.00,,,0.00,open2300-1.11,2011-05-28 12:14:00,
2011-05-28 06:24:00,52.0,35.3,29.73,East,90,6.7,6.7,53,0.00,,,0.00,open2300-1.11,2011-05-28 12:24:00,
2011-05-28 06:34:00,52.3,35.2,29.73,ENE,67,0.0,8.3,52,0.00,,,0.00,open2300-1.11,2011-05-28 12:34:00,
2011-05-28 06:45:00,52.9,35.7,29.73,East,90,4.7,5.6,52,0.00,,,0.00,open2300-1.11,2011-05-28 12:45:00,
2011-05-28 06:54:00,52.9,35.2,29.73,ENE,67,2.9,8.3,51,0.00,,,0.00,open2300-1.11,2011-05-28 12:54:00,
2011-05-28 07:04:00,53.2,35.5,29.73,East,90,0.0,2.9,51,0.00,,,0.00,open2300-1.11,2011-05-28 13:04:00,
2011-05-28 07:14:00,53.4,35.7,29.73,East,90,0.0,1.6,51,0.00,,,0.00,open2300-1.11,2011-05-28 13:14:00,
2011-05-28 07:24:00,54.0,36.2,29.73,ESE,112,0.7,6.5,51,0.00,,,0.00,open2300-1.11,2011-05-28 13:24:00,
2011-05-28 07:34:00,54.7,36.4,29.73,SE,135,0.0,5.1,50,0.00,,,0.00,open2300-1.11,2011-05-28 13:34:00,
2011-05-28 07:44:00,55.6,37.2,29.73,East,90,1.1,2.7,50,0.00,,,0.00,open2300-1.11,2011-05-28 13:44:00,
2011-05-28 07:54:00,56.3,37.9,29.72,SW,225,0.0,2.2,50,0.00,,,0.00,open2300-1.11,2011-05-28 13:54:00,
2011-05-28 08:04:00,57.2,38.8,29.72,SE,135,0.0,0.0,50,0.00,,,0.00,open2300-1.11,2011-05-28 14:04:00,
2011-05-28 08:14:00,58.1,39.1,29.72,SE,135,0.0,1.3,49,0.00,,,0.00,open2300-1.11,2011-05-28 14:14:00,
2011-05-28 08:24:00,59.5,39.8,29.72,SSE,157,0.0,0.0,48,0.00,,,0.00,open2300-1.11,2011-05-28 14:24:00,
2011-05-28 08:35:00,60.6,39.6,29.72,NNE,22,0.0,0.0,46,0.00,,,0.00,open2300-1.11,2011-05-28 14:35:00,
2011-05-28 08:44:00,61.5,39.8,29.71,NNW,337,0.0,1.1,45,0.00,,,0.00,open2300-1.11,2011-05-28 14:44:00,
2011-05-28 08:54:00,63.0,40.0,29.72,West,270,0.0,0.0,43,0.00,,,0.00,open2300-1.11,2011-05-28 14:54:00,
2011-05-28 09:04:00,63.7,39.5,29.72,West,270,0.0,0.0,41,0.00,,,0.00,open2300-1.11,2011-05-28 15:04:00,
2011-05-28 09:14:00,64.9,39.3,29.72,West,270,0.7,0.7,39,0.00,,,0.00,open2300-1.11,2011-05-28 15:14:00,
2011-05-28 09:24:00,66.4,39.9,29.72,West,270,1.6,1.8,38,0.00,,,0.00,open2300-1.11,2011-05-28 15:24:00,
2011-05-28 09:34:00,66.9,39.6,29.72,WSW,247,4.0,5.8,37,0.00,,,0.00,open2300-1.11,2011-05-28 15:34:00,
2011-05-28 09:44:00,68.2,39.3,29.71,West,270,0.0,7.6,35,0.00,,,0.00,open2300-1.11,2011-05-28 15:44:00,
2011-05-28 09:55:00,69.3,38.8,29.71,WSW,247,9.4,9.4,33,0.00,,,0.00,open2300-1.11,2011-05-28 15:55:00,
2011-05-28 10:04:00,70.2,38.8,29.71,SW,225,1.8,9.4,32,0.00,,,0.00,open2300-1.11,2011-05-28 16:04:00,
2011-05-28 10:14:00,70.9,38.8,29.70,South,180,4.9,5.4,31,0.00,,,0.00,open2300-1.11,2011-05-28 16:14:00,
2011-05-28 10:24:00,71.2,38.3,29.70,West,270,0.0,4.9,30,0.00,,,0.00,open2300-1.11,2011-05-28 16:24:00,
2011-05-28 10:34:00,72.1,39.1,29.70,WSW,247,8.1,8.1,30,0.00,,,0.00,open2300-1.11,2011-05-28 16:34:00,
2011-05-28 10:44:00,73.0,39.8,29.69,WSW,247,0.0,8.1,30,0.00,,,0.00,open2300-1.11,2011-05-28 16:44:00,
2011-05-28 10:54:00,73.2,40.0,29.69,WNW,292,0.7,9.6,30,0.00,,,0.00,open2300-1.11,2011-05-28 16:54:00,
2011-05-28 11:04:00,73.6,40.3,29.69,West,270,3.4,3.4,30,0.00,,,0.00,open2300-1.11,2011-05-28 17:04:00,
2011-05-28 11:14:00,73.8,39.4,29.69,SW,225,2.5,5.4,29,0.00,,,0.00,open2300-1.11,2011-05-28 17:14:00,
2011-05-28 11:24:00,74.5,39.0,29.69,WSW,247,0.0,2.5,28,0.00,,,0.00,open2300-1.11,2011-05-28 17:24:00,
2011-05-28 11:34:00,75.2,39.7,29.69,West,270,3.4,13.6,28,0.00,,,0.00,open2300-1.11,2011-05-28 17:34:00,
2011-05-28 11:45:00,75.7,40.1,29.68,WNW,292,8.7,8.7,28,0.00,,,0.00,open2300-1.11,2011-05-28 17:45:00,
2011-05-28 11:54:00,76.3,40.6,29.68,WSW,247,9.4,9.4,28,0.00,,,0.00,open2300-1.11,2011-05-28 17:54:00,
2011-05-28 12:04:00,76.8,41.1,29.67,NW,315,0.0,9.4,28,0.00,,,0.00,open2300-1.11,2011-05-28 18:04:00,
2011-05-28 12:14:00,77.5,41.7,29.66,WSW,247,0.0,2.0,28,0.00,,,0.00,open2300-1.11,2011-05-28 18:14:00,
2011-05-28 12:24:00,78.1,41.1,29.66,WSW,247,3.4,6.5,27,0.00,,,0.00,open2300-1.11,2011-05-28 18:24:00,
2011-05-28 12:34:00,79.0,40.8,29.66,SSW,202,0.0,4.7,26,0.00,,,0.00,open2300-1.11,2011-05-28 18:34:00,
2011-05-28 12:44:00,79.3,40.0,29.65,SE,135,2.5,6.3,25,0.00,,,0.00,open2300-1.11,2011-05-28 18:44:00,
2011-05-28 12:54:00,80.2,39.8,29.65,West,270,0.4,6.9,24,0.00,,,0.00,open2300-1.11,2011-05-28 18:54:00,
2011-05-28 13:04:00,80.4,38.9,29.65,WSW,247,2.9,5.1,23,0.00,,,0.00,open2300-1.11,2011-05-28 19:04:00,
2011-05-28 13:14:00,81.1,38.5,29.65,WSW,247,0.0,8.3,22,0.00,,,0.00,open2300-1.11,2011-05-28 19:14:00,
2011-05-28 13:24:00,81.3,37.6,29.63,West,270,3.1,8.7,21,0.00,,,0.00,open2300-1.11,2011-05-28 19:24:00,
2011-05-28 13:34:00,82.0,37.1,29.63,WSW,247,6.7,6.7,20,0.00,,,0.00,open2300-1.11,2011-05-28 19:34:00,
2011-05-28 13:44:00,82.2,38.3,29.63,West,270,5.1,7.8,21,0.00,,,0.00,open2300-1.11,2011-05-28 19:44:00,
2011-05-28 13:54:00,82.2,37.3,29.62,WNW,292,0.0,6.9,20,0.00,,,0.00,open2300-1.11,2011-05-28 19:54:00,
2011-05-28 14:04:00,83.1,39.0,29.61,WNW,292,0.0,6.3,21,0.00,,,0.00,open2300-1.11,2011-05-28 20:04:00,
2011-05-28 14:14:00,83.3,38.1,29.62,WNW,292,8.9,8.9,20,0.00,,,0.00,open2300-1.11,2011-05-28 20:14:00,
2011-05-28 14:24:00,83.5,38.3,29.61,WSW,247,7.2,11.4,20,0.00,,,0.00,open2300-1.11,2011-05-28 20:24:00,
2011-05-28 14:34:00,83.8,39.6,29.60,WSW,247,5.8,7.4,21,0.00,,,0.00,open2300-1.11,2011-05-28 20:34:00,
2011-05-28 14:44:00,84.4,39.0,29.60,SW,225,11.0,11.0,20,0.00,,,0.00,open2300-1.11,2011-05-28 20:44:00,
2011-05-28 14:54:00,84.6,39.1,29.60,SW,225,0.9,11.0,20,0.00,,,0.00,open2300-1.11,2011-05-28 20:54:00,
2011-05-28 15:04:00,84.6,39.1,29.59,SW,225,4.9,5.8,20,0.00,,,0.00,open2300-1.11,2011-05-28 21:04:00,
2011-05-28 15:14:00,84.7,39.3,29.58,WSW,247,1.8,6.3,20,0.00,,,0.00,open2300-1.11,2011-05-28 21:14:00,
2011-05-28 15:24:00,85.3,40.8,29.57,West,270,0.0,5.6,21,0.00,,,0.00,open2300-1.11,2011-05-28 21:24:00,
2011-05-28 15:34:00,85.3,39.7,29.57,WSW,247,2.2,6.0,20,0.00,,,0.00,open2300-1.11,2011-05-28 21:34:00,
2011-05-28 15:44:00,85.3,38.0,29.56,ESE,112,5.6,5.6,19,0.00,,,0.00,open2300-1.11,2011-05-28 21:44:00,
2011-05-28 15:54:00,85.8,40.1,29.56,SW,225,2.0,7.6,20,0.00,,,0.00,open2300-1.11,2011-05-28 21:54:00,
2011-05-28 16:04:00,86.4,38.9,29.54,West,270,0.0,9.4,19,0.00,,,0.00,open2300-1.11,2011-05-28 22:04:00,
2011-05-28 16:14:00,86.4,37.2,29.54,WSW,247,4.7,8.1,18,0.00,,,0.00,open2300-1.11,2011-05-28 22:14:00,
2011-05-28 16:24:00,86.4,37.2,29.54,WSW,247,0.0,4.7,18,0.00,,,0.00,open2300-1.11,2011-05-28 22:24:00,
2011-05-28 16:34:00,86.2,35.3,29.53,WSW,247,3.4,6.3,17,0.00,,,0.00,open2300-1.11,2011-05-28 22:34:00,
2011-05-28 16:44:00,85.6,34.9,29.53,WNW,292,0.0,5.6,17,0.00,,,0.00,open2300-1.11,2011-05-28 22:44:00,
2011-05-28 16:54:00,85.3,34.6,29.53,WSW,247,1.8,4.7,17,0.00,,,0.00,open2300-1.11,2011-05-28 22:54:00,
2011-05-28 17:04:00,84.6,34.0,29.53,WSW,247,6.3,6.3,17,0.00,,,0.00,open2300-1.11,2011-05-28 23:04:00,
2011-05-28 17:14:00,84.0,33.6,29.52,WSW,247,2.0,6.3,17,0.00,,,0.00,open2300-1.11,2011-05-28 23:14:00,
2011-05-28 17:24:00,84.0,35.3,29.52,WSW,247,0.7,6.3,18,0.00,,,0.00,open2300-1.11,2011-05-28 23:24:00,
2011-05-28 17:34:00,84.0,37.0,29.52,SSW,202,4.7,6.0,19,0.00,,,0.00,open2300-1.11,2011-05-28 23:34:00,
2011-05-28 17:44:00,83.3,33.0,29.52,SW,225,3.6,7.8,17,0.00,,,0.00,open2300-1.11,2011-05-28 23:44:00,
2011-05-28 17:54:00,83.3,34.7,29.51,SW,225,10.5,10.5,18,0.00,,,0.00,open2300-1.11,2011-05-28 23:54:00,
2011-05-28 18:05:00,82.9,36.1,29.51,SW,225,2.2,10.5,19,0.00,,,0.00,open2300-1.11,2011-05-29 00:05:00,
2011-05-28 18:14:00,82.6,35.8,29.51,WSW,247,0.0,6.0,19,0.00,,,0.00,open2300-1.11,2011-05-29 00:14:00,
2011-05-28 18:24:00,82.0,35.4,29.51,SW,225,5.4,5.4,19,0.00,,,0.00,open2300-1.11,2011-05-29 00:24:00,
2011-05-28 18:35:00,81.7,35.1,29.50,West,270,3.1,14.8,19,0.00,,,0.00,open2300-1.11,2011-05-29 00:35:00,
2011-05-28 18:44:00,81.7,35.1,29.50,SW,225,4.0,8.1,19,0.00,,,0.00,open2300-1.11,2011-05-29 00:44:00,
2011-05-28 18:54:00,81.7,36.8,29.51,West,270,0.0,4.0,20,0.00,,,0.00,open2300-1.11,2011-05-29 00:54:00,
2011-05-28 19:04:00,81.1,36.4,29.51,WSW,247,5.6,5.6,20,0.00,,,0.00,open2300-1.11,2011-05-29 01:04:00,
2011-05-28 19:15:00,81.0,36.2,29.51,WNW,292,1.8,7.4,20,0.00,,,0.00,open2300-1.11,2011-05-29 01:15:00,
2011-05-28 19:24:00,80.8,34.4,29.52,SSW,202,0.0,9.4,19,0.00,,,0.00,open2300-1.11,2011-05-29 01:24:00,
2011-05-28 19:34:00,80.4,35.8,29.52,SSW,202,4.2,5.1,20,0.00,,,0.00,open2300-1.11,2011-05-29 01:34:00,
2011-05-28 19:44:00,79.9,35.3,29.52,WNW,292,6.9,6.9,20,0.00,,,0.00,open2300-1.11,2011-05-29 01:44:00,
2011-05-28 19:54:00,79.7,35.2,29.53,WSW,247,0.0,11.4,20,0.00,,,0.00,open2300-1.11,2011-05-29 01:54:00,
2011-05-28 20:05:00,79.5,35.0,29.53,SW,225,7.8,7.8,20,0.00,,,0.00,open2300-1.11,2011-05-29 02:05:00,
2011-05-28 20:14:00,79.0,34.5,29.52,WSW,247,3.6,8.5,20,0.00,,,0.00,open2300-1.11,2011-05-29 02:14:00,
2011-05-28 20:25:00,78.6,34.2,29.54,West,270,12.1,12.1,20,0.00,,,0.00,open2300-1.11,2011-05-29 02:25:00,
2011-05-28 20:34:00,78.1,34.8,29.54,WSW,247,6.9,12.1,21,0.00,,,0.00,open2300-1.11,2011-05-29 02:34:00,
2011-05-28 20:45:00,77.5,34.4,29.54,West,270,7.2,7.2,21,0.00,,,0.00,open2300-1.11,2011-05-29 02:45:00,
2011-05-28 20:55:00,77.2,34.1,29.54,SW,225,1.1,10.1,21,0.00,,,0.00,open2300-1.11,2011-05-29 02:55:00,
2011-05-28 21:04:00,76.6,34.7,29.54,SE,135,2.0,5.1,22,0.00,,,0.00,open2300-1.11,2011-05-29 03:04:00,
2011-05-28 21:14:00,75.9,34.1,29.55,WSW,247,0.0,2.0,22,0.00,,,0.00,open2300-1.11,2011-05-29 03:14:00,
2011-05-28 21:24:00,75.6,33.8,29.55,SW,225,1.6,5.6,22,0.00,,,0.00,open2300-1.11,2011-05-29 03:24:00,
2011-05-28 21:34:00,75.4,33.7,29.55,WSW,247,0.0,4.0,22,0.00,,,0.00,open2300-1.11,2011-05-29 03:34:00,
2011-05-28 21:44:00,75.0,33.3,29.55,SW,225,2.7,4.0,22,0.00,,,0.00,open2300-1.11,2011-05-29 03:44:00,
2011-05-28 21:55:00,74.7,34.1,29.56,WSW,247,0.0,2.7,23,0.00,,,0.00,open2300-1.11,2011-05-29 03:55:00,
2011-05-28 22:04:00,74.1,33.6,29.56,SE,135,5.4,5.4,23,0.00,,,0.00,open2300-1.11,2011-05-29 04:04:00,
2011-05-28 22:14:00,73.9,33.5,29.56,SW,225,0.0,5.4,23,0.00,,,0.00,open2300-1.11,2011-05-29 04:14:00,
2011-05-28 22:24:00,73.6,34.2,29.57,SW,225,6.3,6.3,24,0.00,,,0.00,open2300-1.11,2011-05-29 04:24:00,
2011-05-28 22:34:00,73.2,33.9,29.57,WSW,247,5.6,6.3,24,0.00,,,0.00,open2300-1.11,2011-05-29 04:34:00,
2011-05-28 22:44:00,73.2,33.9,29.57,WSW,247,5.6,5.6,24,0.00,,,0.00,open2300-1.11,2011-05-29 04:44:00,
2011-05-28 22:54:00,72.7,33.4,29.57,West,270,0.0,5.6,24,0.00,,,0.00,open2300-1.11,2011-05-29 04:54:00,
2011-05-28 23:05:00,72.3,34.1,29.57,West,270,0.7,4.7,25,0.00,,,0.00,open2300-1.11,2011-05-29 05:05:00,
2011-05-28 23:14:00,71.8,33.7,29.57,SW,225,0.0,0.7,25,0.00,,,0.00,open2300-1.11,2011-05-29 05:14:00,
2011-05-28 23:24:00,71.2,33.2,29.57,WSW,247,0.0,2.0,25,0.00,,,0.00,open2300-1.11,2011-05-29 05:24:00,
2011-05-28 23:34:00,70.9,33.9,29.57,West,270,1.1,2.0,26,0.00,,,0.00,open2300-1.11,2011-05-29 05:34:00,
2011-05-28 23:44:00,70.7,34.8,29.57,WSW,247,0.0,5.6,27,0.00,,,0.00,open2300-1.11,2011-05-29 05:44:00,
2011-05-28 23:54:00,70.3,34.5,29.56,SW,225,0.0,6.9,27,0.00,,,0.00,open2300-1.11,2011-05-29 05:54:00,